This is the latest recevied weather packets stored in our database for station/object N5AJY. If no packets are shown the sender has not sent any weather packets the latest 10 day(s).
| Time | Temp. | Humidity | Pressure | Rain* | Wind** | Luminosity | Snow |
|---|---|---|---|---|---|---|---|
| 1777479704 | 15.56° C | 66% | 1015.4 hPa | 0 mm | - | - | - |
| 1777479403 | 15.56° C | 65% | 1015.4 hPa | 0 mm | - | - | - |
| 1777479105 | 15° C | 65% | 1015.4 hPa | 0 mm | - | - | - |
| 1777478803 | 15° C | 65% | 1015.4 hPa | 0 mm | - | - | - |
| 1777478504 | 15° C | 64% | 1015.6 hPa | 0 mm | - | - | - |
| 1777477903 | 14.44° C | 65% | 1015.6 hPa | 0 mm | - | - | - |
| 1777477604 | 15° C | 64% | 1015.6 hPa | 0 mm | - | - | - |
| 1777477005 | 14.44° C | 66% | 1015.5 hPa | 0 mm | - | - | - |
| 1777476703 | 14.44° C | 68% | 1015.4 hPa | 0 mm | - | - | - |
| 1777476103 | 13.89° C | 69% | 1015.5 hPa | 0 mm | - | - | - |
| 1777475804 | 13.33° C | 69% | 1015.6 hPa | 0 mm | - | - | - |
| 1777475504 | 13.33° C | 69% | 1015.5 hPa | 0 mm | - | - | - |
| 1777474903 | 13.33° C | 70% | 1015.3 hPa | 0 mm | - | - | - |
| 1777474304 | 13.33° C | 72% | 1015.3 hPa | 0 mm | - | - | - |
| 1777474004 | 12.78° C | 71% | 1015.1 hPa | 0 mm | - | - | - |
| 1777473703 | 12.78° C | 73% | 1015 hPa | 0 mm | - | - | - |
| 1777473404 | 12.78° C | 73% | 1015 hPa | 0 mm | - | - | - |
| 1777473103 | 12.78° C | 74% | 1015 hPa | 0 mm | - | - | - |
| 1777472811 | 12.22° C | 75% | 1015 hPa | 0 mm | - | - | - |
| 1777472504 | 12.22° C | 74% | 1015.1 hPa | 0 mm | - | - | - |
| 1777472204 | 12.22° C | 74% | 1015.1 hPa | 0 mm | - | - | - |
| 1777471905 | 12.22° C | 76% | 1015.1 hPa | 0 mm | - | - | - |
| 1777471603 | 11.67° C | 76% | 1015.1 hPa | 0 mm | - | - | - |
| 1777471304 | 11.67° C | 76% | 1015.3 hPa | 0 mm | - | - | - |
| 1777471003 | 11.11° C | 78% | 1015.4 hPa | 0 mm | - | - | - |
* Rain latest hour (hover to see other rain measurements)
** Current wind speed in m/s (hover to see current wind gust speed)